Vertical_Velocity
4 4 2 3 3 3 1 3 3 3 1 1 1 0 0 0 -0 -0 0 1 1 1 1 1 2 2 1 1 1 1 2 3 3 3 2 2 2 1 1 1 0 -0 -1 -1 -0 1 1 2 2 3 3 1 0 -0 0 0 1 2 3 1 -0 -2 -2 -1 -1 -0 0 1 1 0 -0 0 1 1 -1 -1 -0 0 1 1 1 1 -0 -1 -1 -1
3 3 2 2 2 2 1 3 3 3 1 1 1 1 -0 -1 -1 -1 -1 -0 0 1 1 2 2 2 2 1 1 1 2 2 2 2 2 2 2 1 1 1 0 -1 -1 -1 -0 0 1 2 3 4 4 2 0 -0 0 1 2 3 3 1 -1 -2 -2 -2 -1 0 1 1 1 1 -1 -1 -1 -0 -1 -1 -0 0 0 1 2 2 0 -1 -1 -1
1 2 2 2 1 1 2 2 2 1 -0 0 1 2 1 -1 -1 -1 -1 -1 -1 -0 1 1 2 2 2 2 1 1 2 2 2 2 2 2 2 1 1 0 -0 -1 -1 -1 -0 0 1 2 4 4 4 2 0 -0 0 1 2 3 3 1 -1 -2 -2 -1 -0 0 1 1 1 1 -1 -1 -1 -1 -1 -1 -0 0 1 1 1 2 1 -0 -1 -1
1 1 1 0 -1 -0 2 2 1 -1 -1 -0 1 3 2 1 0 -0 -1 -1 -1 -1 -0 0 1 2 2 2 2 2 2 2 1 1 2 2 2 1 1 0 -0 -1 -1 -1 -0 1 2 3 4 3 2 1 0 0 1 1 2 2 2 0 -1 -2 -2 -1 0 1 1 1 1 1 -0 -1 -1 -1 -1 -1 -0 0 1 1 0 1 1 0 -0 -0
0 -0 0 -2 -3 -2 2 2 1 0 1 1 2 3 3 2 2 2 1 -0 -0 -0 0 1 1 2 3 2 2 2 2 2 2 2 2 2 1 1 0 -0 -0 -1 -1 -1 0 2 4 4 3 2 1 0 0 1 1 1 2 2 1 -0 -1 -2 -1 -0 0 1 1 1 1 1 0 -0 -0 -0 -0 -0 -0 0 1 0 -0 -0 -0 -0 -0 0
-2 -2 -1 -2 -3 -2 1 1 1 2 2 2 2 2 2 2 3 3 2 1 1 1 1 2 2 2 2 2 2 1 1 2 2 2 2 2 1 1 0 0 0 -0 -0 1 2 4 4 4 2 1 -0 -0 0 1 1 1 2 2 1 -0 -1 -2 -2 -0 1 2 2 1 1 1 1 0 0 0 -0 -0 -0 0 0 0 -0 -0 -0 -0 -0 0
-3 -3 -2 -2 -1 -1 0 0 1 2 2 2 2 1 1 2 3 3 3 2 1 1 1 2 2 2 2 1 1 1 1 1 2 2 3 3 2 1 1 1 1 1 2 3 4 4 4 2 1 0 -0 0 1 1 1 1 2 1 1 -0 -2 -2 -2 -0 1 2 2 2 1 1 1 1 0 0 0 -0 -0 0 0 0 0 0 -0 -0 -0 -0
-3 -3 -2 -1 -0 0 1 1 1 2 2 2 2 1 0 0 1 3 3 2 1 1 1 1 2 2 1 1 1 1 1 2 2 2 3 3 2 2 1 1 2 2 3 4 4 3 2 1 0 -0 0 0 1 1 1 2 2 1 1 -0 -2 -3 -3 -1 1 2 3 2 1 1 0 1 1 1 0 0 0 0 0 0 0 0 0 0 -0 -0
-4 -4 -2 -1 -1 -0 0 1 2 2 1 1 1 1 -1 -1 0 2 2 1 1 0 -0 0 1 1 1 0 0 1 2 2 2 2 2 2 2 2 2 2 2 3 3 3 2 1 0 -0 -0 -0 0 1 1 1 1 2 1 1 0 -1 -2 -3 -3 -1 1 2 2 2 1 1 0 1 1 1 1 1 0 0 1 1 1 1 1 0 0 0
-4 -4 -3 -2 -1 -1 -1 1 3 3 0 -1 -1 0 -0 -0 0 1 1 0 -1 -2 -2 -0 1 1 1 -0 -0 0 1 2 3 3 2 2 2 2 2 2 2 2 1 1 1 0 -0 -0 -1 -0 0 1 1 2 2 2 1 0 -0 -1 -3 -3 -2 -1 1 2 2 1 1 0 0 1 1 1 1 1 1 1 1 1 1 1 1 0 0 0
-3 -4 -4 -3 -2 -1 -1 1 3 4 1 -1 -1 -0 1 1 1 1 1 0 -1 -3 -4 -2 0 1 1 -0 -1 -0 1 2 3 3 2 2 2 2 2 2 1 1 1 1 1 1 -0 -1 -1 -0 1 2 2 2 2 1 0 -1 -2 -2 -3 -3 -1 0 1 2 2 1 1 0 0 1 1 1 1 1 1 1 1 1 1 1 1 0 0 0
-2 -3 -4 -4 -2 -1 -0 0 2 3 2 1 0 1 2 2 1 0 1 1 -0 -2 -4 -2 -1 0 1 -0 -1 -1 0 1 2 3 2 2 2 2 1 1 1 1 0 1 1 0 -1 -1 0 1 2 3 3 3 2 0 -1 -2 -3 -4 -3 -2 -0 1 2 2 2 1 1 0 0 1 1 1 1 1 1 1 1 1 0 0 0 0 0 0
-2 -2 -4 -4 -3 -1 -0 1 1 2 2 2 2 3 4 2 0 -1 -0 1 1 -0 -2 -2 -1 -1 -1 -1 -1 -0 0 1 1 1 2 2 1 1 1 1 1 0 -0 0 1 1 1 2 2 3 3 3 3 2 1 -1 -2 -3 -4 -3 -2 -1 0 1 2 2 2 1 1 0 0 0 1 1 1 1 1 1 1 0 0 0 0 0 0 0
-2 -2 -3 -3 -2 -1 -0 1 1 2 3 3 2 2 3 3 2 0 -1 1 1 1 -1 -1 -1 -2 -3 -3 -3 -1 1 1 0 -0 -0 0 0 1 1 0 -0 -1 -1 0 2 4 4 5 5 4 3 3 2 0 -1 -3 -4 -4 -3 -2 -1 -0 1 1 2 2 2 1 1 0 0 0 0 1 1 1 1 1 0 0 0 0 0 0 0 0
-2 -2 -3 -2 -2 -1 -1 0 1 2 3 2 1 1 2 3 3 1 -0 0 1 1 -0 -1 -1 -2 -3 -4 -3 -2 0 1 0 -1 -2 -1 -1 -0 0 -0 -1 -2 -2 1 4 6 5 5 4 3 2 2 0 -1 -3 -4 -4 -3 -1 -1 -0 0 1 1 2 2 1 1 1 0 0 0 0 1 1 1 1 1 0 -0 -0 0 0 0 0 0
-2 -2 -2 -2 -1 -0 -0 0 1 1 2 1 0 0 1 2 2 1 -0 1 1 1 -0 -2 -2 -3 -4 -3 -2 -1 1 1 -0 -2 -3 -2 -1 -0 1 1 -1 -2 -2 1 4 5 4 4 3 2 1 0 -1 -2 -2 -2 -2 -1 -0 -0 0 1 1 1 1 1 1 1 1 0 0 0 1 1 1 1 1 1 0 0 0 0 0 0 0 0
-3 -3 -2 -1 -0 0 0 0 -0 -0 0 -0 -0 -0 1 2 2 1 0 1 1 1 -0 -2 -3 -4 -5 -6 -4 -2 1 1 -1 -2 -2 -0 0 1 2 2 -0 -2 -2 0 2 3 3 2 1 1 1 0 -0 -0 -1 -1 -1 -0 -0 0 1 1 1 1 1 1 1 1 0 0 0 0 1 1 1 1 1 1 1 0 0 0 0 0 0 0
-3 -2 -2 -1 -0 0 1 0 -0 -1 -2 -2 -2 -2 -1 -0 0 1 1 1 1 1 -1 -2 -3 -3 -3 -4 -5 -5 -1 2 2 2 2 3 2 2 2 2 1 -1 -1 0 1 2 2 1 0 0 0 0 0 0 0 -0 -0 -0 -0 0 1 1 2 1 1 1 1 1 0 0 0 1 1 1 1 1 1 1 1 0 0 0 0 0 0 0
-3 -2 -1 -1 -1 -0 0 1 0 -1 -2 -4 -4 -4 -3 -3 -1 -0 1 1 1 1 -0 -1 -2 -2 -2 -2 -2 -2 -1 3 6 6 5 4 2 0 1 2 1 -0 -1 0 1 2 2 0 -1 -1 -1 -0 0 1 0 0 0 -0 0 1 1 1 2 2 1 1 1 1 1 0 0 1 1 1 1 1 1 1 1 1 1 0 0 0 0 0
-3 -2 -1 -1 -1 -1 -1 1 2 1 -0 -3 -4 -4 -4 -4 -3 -1 -0 0 0 -0 -1 -1 -2 -2 -2 -1 -1 -1 -1 3 5 5 4 3 0 -2 -1 1 1 0 -1 -0 1 3 3 0 -1 -1 -1 -0 0 1 1 0 0 0 0 1 1 1 2 2 1 1 1 1 1 1 1 1 1 0 0 0 0 0 0 1 1 1 0 0 0 0
-3 -2 -1 -1 -1 -2 -2 1 3 3 1 -1 -2 -2 -3 -3 -2 -2 -1 -0 -0 -1 -2 -2 -2 -1 -0 1 1 -0 -1 2 3 2 0 1 -1 -2 -2 1 2 1 -0 -0 1 3 3 1 -0 -1 -0 0 0 1 1 0 0 0 1 1 1 1 1 1 1 1 1 1 1 1 1 1 1 0 0 0 0 0 0 1 1 1 0 0 0 0
-2 -2 -2 -2 -2 -2 -2 1 2 3 2 1 0 -0 -2 -1 -1 -1 -1 0 -0 -1 -1 -1 -1 -0 1 2 1 -0 -1 1 1 0 -1 -1 -1 -2 -1 1 2 1 -1 -0 1 2 2 1 -0 -1 -0 0 1 1 1 1 1 1 1 1 1 1 1 1 1 1 1 1 1 1 1 1 1 1 0 0 0 0 1 1 1 1 0 0 0 0
-1 -2 -2 -3 -3 -2 -1 0 2 2 2 2 1 0 -1 -0 -0 -0 -1 -0 -0 -0 -1 -0 0 1 1 1 0 -0 -1 0 0 0 -0 -2 -1 -0 0 2 3 1 -1 -0 1 2 2 0 -0 -1 -0 1 1 1 1 1 1 1 1 1 1 1 1 1 1 1 1 1 1 1 1 1 1 1 1 1 1 1 1 1 1 0 -0 -0 -0 -0
-0 -1 -2 -3 -2 -2 -1 -0 1 1 2 1 1 -0 -1 -0 -0 -1 -1 -1 -0 -0 1 1 1 1 0 1 1 1 -1 0 1 0 -1 -2 -0 2 2 3 2 0 -2 -1 1 2 1 -0 -1 -1 0 1 1 1 1 1 1 0 0 0 1 1 1 1 1 1 1 1 1 1 1 1 1 1 1 1 1 1 0 0 -0 -0 -1 -1 -1 -1
-0 -1 -2 -2 -2 -1 -1 -0 0 1 1 1 0 -0 -1 -1 -1 -1 -1 -1 -1 0 2 2 1 -0 -1 1 1 0 -1 0 1 0 -1 -1 1 3 3 3 2 0 -3 -1 1 2 1 -1 -1 -0 1 1 1 1 1 1 0 0 0 0 0 0 0 1 1 1 1 1 1 1 1 1 1 1 1 1 1 0 -0 -1 -1 -1 -2 -2 -1 -1
-0 -1 -2 -2 -2 -2 -1 -1 0 1 1 1 0 -0 -0 -1 -1 -2 -3 -2 -1 1 2 0 -1 -1 0 1 1 -0 -1 1 1 1 0 1 3 4 3 3 2 0 -3 -1 1 2 1 -1 -1 -0 1 1 1 1 1 0 0 0 0 0 0 0 0 0 0 1 1 1 1 1 1 1 1 1 1 0 -0 -1 -1 -1 -2 -2 -2 -1 -1 -0
0 -0 -1 -2 -2 -2 -2 -1 -0 0 1 0 -0 -0 -0 -0 -1 -2 -4 -2 0 2 0 -2 -2 -1 0 1 1 0 0 1 1 1 1 3 3 3 2 2 2 0 -1 -0 1 1 1 -0 -0 0 1 1 1 1 1 0 0 0 0 0 0 0 0 0 0 0 0 1 1 1 1 1 0 -0 -1 -1 -1 -2 -2 -2 -2 -1 -1 -0 0 1
0 -0 -1 -1 -2 -2 -2 -2 -1 -0 0 -0 -0 -0 -0 -0 -1 -3 -4 -0 2 2 -1 -2 -2 -1 -0 1 1 1 1 0 -0 0 2 3 2 1 1 2 1 0 -0 0 1 1 1 0 0 1 1 1 1 1 1 1 0 1 1 1 1 1 0 0 0 0 1 1 1 0 -0 -1 -1 -2 -2 -2 -2 -2 -2 -1 -1 -0 0 1 1 1
1 0 -0 -1 -2 -2 -2 -2 -2 -1 -1 -1 -1 -1 -0 0 -0 -1 -2 1 2 1 -2 -2 -1 -1 -0 1 2 1 0 -0 -0 1 3 3 1 -1 0 1 1 0 1 1 0 0 0 1 1 1 1 1 1 1 1 0 1 1 1 1 1 1 1 0 0 0 0 0 -0 -1 -1 -2 -2 -2 -2 -2 -2 -1 -1 -0 0 1 1 1 1 1
1 1 1 -0 -1 -2 -2 -2 -3 -3 -2 -1 -1 -1 -0 1 1 0 -0 1 1 1 -1 -1 -1 -1 0 1 1 0 -1 1 2 3 4 2 -1 -2 1 1 1 1 2 1 -0 -0 0 1 1 1 0 1 1 1 1 0 1 1 1 1 1 1 1 1 0 -0 -0 -1 -1 -2 -2 -2 -2 -2 -1 -1 -0 0 1 1 1 1 1 1 1 1
1 2 2 1 -0 -1 -1 -2 -3 -4 -3 -2 -1 -1 0 1 1 1 0 1 1 1 0 -1 -1 -1 1 2 1 -0 0 3 4 3 4 0 -2 -2 1 2 1 1 1 1 -0 -1 0 2 1 1 0 0 1 1 0 0 1 1 1 1 1 1 1 0 -0 -1 -1 -1 -2 -2 -1 -1 -0 -0 0 1 1 1 1 1 1 1 1 1 1 1
2 2 2 1 1 -0 -1 -2 -3 -4 -4 -2 -1 -0 0 1 1 1 1 2 2 1 -0 -2 -2 -1 1 1 1 0 2 3 3 2 2 -1 -2 -1 1 1 1 1 1 0 -1 -1 0 2 2 1 0 0 0 0 1 1 1 1 1 1 1 1 1 0 -0 -1 -1 -1 -1 -1 -0 0 1 1 1 1 1 1 1 1 1 1 1 1 0 0
2 2 2 2 1 0 -1 -2 -3 -4 -4 -3 -1 -0 0 0 0 0 1 2 2 1 -0 -1 -1 -0 1 1 1 1 3 2 1 0 0 -1 -1 -0 1 1 0 0 1 0 -0 -0 1 2 2 1 0 0 0 1 1 1 1 1 1 1 0 0 -0 0 0 -0 -0 -0 0 0 1 1 1 1 1 1 1 1 1 1 1 1 0 0 0 -0
2 3 3 2 2 1 -0 -1 -2 -3 -4 -2 -1 -0 -0 -1 -1 -0 0 1 1 0 -0 -1 -1 -0 1 1 1 2 3 2 0 -1 -0 -0 -0 0 1 0 0 0 1 1 0 1 2 2 2 1 0 1 1 1 1 1 1 1 1 1 0 -0 -0 -0 0 0 0 1 1 1 1 1 1 1 1 1 1 1 1 1 1 0 -0 -0 -0 -0
3 3 2 2 2 1 0 -1 -2 -3 -3 -1 -0 0 -0 -1 -1 -1 0 1 1 0 -0 -1 -0 0 1 1 1 2 3 1 -1 -1 0 1 1 0 0 -0 0 1 1 1 1 1 2 2 1 0 1 1 1 1 1 1 1 1 1 0 0 -0 -0 0 0 1 1 1 1 1 1 1 1 1 0 0 1 1 1 0 0 -0 -0 -0 -0 -0
3 3 2 2 2 2 1 -0 -1 -2 -2 -1 -0 0 -1 -1 -1 -1 0 1 0 -0 -1 -1 -0 0 1 1 1 1 1 -1 -2 -1 0 0 0 -0 -0 -0 1 1 1 1 1 2 2 1 0 0 1 1 1 0 0 0 1 1 1 0 0 -0 -0 0 1 1 1 1 1 1 0 0 0 0 0 0 0 0 0 0 -0 -0 -0 -0 -0 0
3 3 2 3 3 3 2 1 -0 -1 -1 -1 -0 -0 -0 -1 -1 -0 1 1 0 -0 -1 -1 -0 0 1 1 1 0 -0 -1 -1 -0 1 0 0 -0 -0 0 1 1 1 2 2 1 1 0 0 1 2 1 1 -0 -0 -0 0 0 0 -0 0 0 0 1 1 1 1 0 0 0 0 0 0 0 -0 0 0 -0 -0 -0 -0 -0 -0 0 0 0
4 3 3 3 4 3 3 1 0 -0 -1 -1 -1 -0 0 -0 -0 -0 0 -0 -0 -0 -1 -1 -0 -0 0 1 1 0 -0 -0 -0 0 0 1 0 0 0 1 1 1 2 1 1 1 0 0 1 1 2 1 0 -0 -1 -1 -0 0 -0 -0 0 1 1 1 1 1 0 -0 -0 -0 -0 -0 -0 -0 -0 -0 -0 -0 -0 -0 -0 -0 0 0 0 0
4 4 4 4 4 4 4 2 1 -0 -0 -0 -0 -0 0 -0 -0 -0 -0 -0 -1 -1 -0 -0 -0 -0 0 0 1 1 0 0 0 0 0 1 1 1 1 1 1 2 2 1 1 1 1 1 1 1 1 1 0 -0 -1 -0 -0 -0 -0 0 1 1 0 1 0 0 -0 -0 -1 -1 -0 -0 -0 -0 -0 -0 -0 -0 -1 -0 -0 0 0 0 0 0
5 5 5 5 5 4 4 2 0 -0 0 0 0 -0 -0 -1 -1 -1 -1 -1 -0 -0 -0 -0 -0 -0 0 1 1 1 0 0 -0 0 0 1 1 2 2 1 2 2 2 1 1 1 1 1 1 0 -0 -0 -1 -1 -0 0 0 0 1 1 1 0 -1 -0 -0 -1 -1 -1 -1 -0 -1 -0 -0 -0 -0 -0 -0 -0 -0 -0 -0 -0 0 0 -0 -0
6 7 7 6 5 4 3 1 1 1 1 0 -0 -1 -2 -1 -1 -1 -1 -1 -0 -0 -0 0 0 0 1 1 1 1 0 -0 -0 -0 0 1 2 2 2 2 2 1 1 1 1 1 2 1 1 0 -0 -0 -0 -0 -0 0 1 1 2 1 -0 -1 -1 -1 -1 -1 -1 -1 -1 -0 -0 -0 -0 -0 -1 -0 -0 -0 -0 0 0 -0 -0 -0 -0 -0
9 10 10 8 6 4 2 2 2 2 1 -0 -1 -2 -2 -1 -1 -1 -1 -1 -1 -0 0 0 1 1 2 2 1 0 -0 -1 -1 -0 1 2 2 2 2 2 1 1 1 1 1 1 1 1 0 -0 -0 0 1 0 -0 0 0 1 1 -0 -1 -1 -1 -1 -1 -1 -0 -0 -0 0 -0 -0 -1 -1 -1 -0 -0 0 0 0 0 0 0 -0 -0 -0
11 12 12 8 6 4 3 4 3 2 0 -1 -1 -2 -2 -1 -1 -1 -1 -1 -0 -0 1 1 1 2 2 1 1 0 -0 -1 -0 1 2 2 2 2 1 1 1 1 1 1 1 1 1 1 1 0 0 1 1 0 -0 -0 -0 -0 -0 -1 -1 -1 -0 -1 -1 -1 0 0 0 0 -0 -1 -1 -1 -1 -1 -0 -0 0 0 0 0 0 0 -0 -0
12 12 9 7 5 5 5 4 3 1 -0 -1 -2 -2 -1 -1 -0 -0 -1 -1 -1 0 1 1 2 2 1 0 -0 -0 -0 0 1 2 3 2 1 1 1 1 1 1 1 1 1 0 0 1 1 1 1 2 1 0 -1 -1 -1 -1 -1 -1 -1 -0 -0 -1 -0 0 1 0 0 -0 -1 -1 -1 -1 -1 -1 -1 -0 -0 0 0 0 0 0 -0 -0
9 7 4 4 5 6 6 4 3 1 0 -1 -2 -1 -1 -0 0 0 -0 -1 -0 0 1 2 2 2 0 -0 -0 -0 -0 1 3 3 3 2 1 1 1 1 1 1 1 1 0 0 1 1 1 1 2 2 1 0 -0 -1 -1 -1 -1 -1 -1 -0 -0 0 1 1 0 0 -0 -0 -0 -1 -1 -1 -1 -1 -1 -1 -1 -0 -0 -0 -0 0 0 -0
5 4 3 5 7 8 6 5 3 2 -0 -1 -1 -1 -0 0 0 0 -0 -0 0 1 2 3 2 1 -1 -0 0 0 1 1 2 3 3 2 1 1 1 1 1 1 1 1 1 1 1 1 1 2 2 1 0 -0 -1 -1 -1 -1 -2 -1 -0 0 1 2 2 1 -0 -0 -0 -0 -1 -0 -0 -0 -0 -1 -1 -1 -1 -1 -1 -1 -1 -0 -0 -0
4 5 6 8 9 9 7 5 4 2 -0 -1 -1 -0 0 0 0 0 0 0 1 2 2 2 2 0 -0 0 0 0 1 1 2 2 2 1 1 1 1 1 1 1 1 1 1 2 2 2 1 1 0 -0 -1 -1 -1 -1 -0 -1 -1 -1 -0 1 3 3 2 1 -0 -0 -0 -1 -1 -0 -0 -0 -0 0 -0 -0 -1 -1 -1 -1 -1 -1 -1 -1
7 9 11 12 11 9 6 5 3 2 0 -0 0 0 0 0 1 1 1 1 2 2 2 2 1 1 1 -0 -0 -0 0 1 1 2 2 1 1 1 1 1 1 1 1 1 1 2 1 1 1 -0 -1 -1 -1 -2 -2 -1 -0 -0 -1 -1 1 2 3 3 2 1 1 0 -0 -0 -0 -0 -0 0 0 1 0 -0 -1 -1 -1 -1 -1 -1 -1 -1
10 12 13 12 11 9 6 5 3 2 1 1 1 1 0 0 1 1 2 2 2 2 1 1 1 1 0 -0 -0 0 1 1 1 1 1 1 1 1 1 1 1 1 1 1 1 1 1 0 -1 -1 -2 -1 -1 -2 -2 -1 -1 -0 -0 0 1 2 3 3 2 2 2 1 1 0 -0 -0 -0 0 1 1 0 -0 -0 -1 -1 -2 -2 -1 -1 -1
10 12 11 11 10 8 6 4 3 2 1 1 1 1 0 1 1 2 2 2 1 1 1 1 1 0 -0 -0 0 1 2 1 1 1 0 0 1 1 1 1 1 1 1 1 1 1 0 -0 -1 -2 -1 -1 -1 -1 -2 -2 -1 -0 0 1 2 2 2 2 2 2 2 2 1 1 0 0 0 0 1 0 0 -0 -1 -1 -1 -2 -2 -1 -1 -1
10 11 10 10 8 7 5 4 3 2 1 1 1 1 1 1 2 2 2 1 1 1 1 1 -0 -1 -1 0 1 2 2 2 2 1 1 1 1 1 1 1 1 1 1 0 -0 -0 -1 -1 -1 -2 -2 -1 -0 -0 -1 -2 -1 -0 1 2 2 2 2 1 1 1 2 1 1 1 1 1 1 0 0 0 -0 -1 -1 -1 -1 -2 -1 -1 -1 -2
Height
3064 3064 3064 3064 3064 3064 3063 3064 3064 3063 3063 3063 3063 3063 3063 3063 3063 3063 3064 3064 3064 3064 3064 3064 3064 3064 3064 3064 3064 3064 3064 3064 3064 3065 3065 3065 3065 3066 3066 3066 3066 3066 3066 3066 3067 3067 3067 3068 3068 3068 3068 3069 3069 3069 3069 3069 3069 3069 3068 3068 3068 3068 3068 3068 3068 3068 3068 3069 3069 3068 3068 3068 3069 3069 3068 3069 3070 3070 3071 3072 3072 3072 3073 3074 3074 3075
3061 3061 3061 3061 3061 3061 3060 3060 3061 3060 3060 3060 3060 3061 3061 3061 3061 3061 3061 3061 3061 3061 3061 3061 3061 3061 3061 3061 3061 3061 3062 3062 3062 3062 3062 3063 3063 3063 3064 3064 3064 3064 3064 3064 3065 3065 3066 3066 3066 3066 3066 3067 3067 3067 3067 3067 3067 3067 3067 3066 3066 3066 3066 3066 3066 3066 3067 3067 3067 3067 3066 3067 3067 3067 3067 3067 3068 3069 3069 3070 3071 3071 3071 3072 3072 3073
3058 3058 3057 3058 3058 3057 3057 3057 3057 3057 3057 3057 3057 3058 3058 3058 3058 3058 3058 3059 3059 3059 3059 3059 3059 3059 3058 3059 3059 3059 3059 3059 3059 3060 3060 3061 3061 3061 3062 3062 3062 3062 3062 3062 3062 3063 3063 3064 3064 3064 3064 3064 3065 3065 3065 3065 3065 3065 3064 3064 3064 3064 3064 3063 3063 3064 3064 3065 3065 3065 3064 3065 3065 3065 3065 3066 3067 3067 3068 3068 3069 3070 3070 3070 3071 3072
3055 3055 3055 3055 3055 3055 3055 3055 3055 3055 3055 3055 3055 3056 3056 3056 3056 3056 3056 3056 3056 3056 3056 3056 3056 3056 3056 3056 3056 3056 3057 3057 3057 3057 3057 3058 3059 3059 3059 3060 3060 3060 3060 3060 3061 3061 3062 3062 3062 3062 3062 3062 3062 3063 3063 3063 3062 3062 3062 3062 3062 3062 3062 3062 3062 3062 3062 3062 3063 3063 3063 3063 3063 3063 3064 3064 3065 3066 3066 3067 3067 3068 3069 3069 3069 3070
3053 3052 3052 3052 3052 3052 3052 3053 3053 3053 3053 3053 3053 3054 3054 3054 3054 3054 3053 3053 3053 3053 3053 3053 3054 3054 3053 3053 3054 3054 3054 3054 3054 3055 3055 3056 3056 3057 3057 3057 3058 3058 3058 3058 3059 3059 3059 3059 3060 3060 3060 3060 3060 3061 3061 3061 3060 3060 3060 3060 3060 3060 3060 3060 3060 3060 3060 3061 3061 3061 3061 3061 3061 3062 3062 3062 3063 3064 3064 3065 3066 3066 3067 3067 3068 3069
3050 3050 3050 3050 3050 3050 3050 3051 3051 3051 3051 3051 3051 3051 3051 3051 3051 3051 3051 3051 3051 3051 3051 3051 3051 3051 3051 3051 3051 3051 3052 3052 3052 3052 3053 3054 3054 3055 3055 3055 3056 3056 3056 3056 3057 3057 3057 3057 3057 3057 3057 3058 3058 3058 3058 3058 3058 3058 3058 3058 3058 3058 3058 3058 3058 3058 3058 3058 3059 3059 3059 3059 3060 3060 3061 3061 3062 3062 3063 3063 3064 3065 3065 3066 3067 3067
3047 3047 3047 3047 3047 3048 3048 3048 3048 3048 3049 3048 3048 3049 3049 3049 3049 3049 3048 3048 3048 3048 3048 3048 3048 3049 3049 3049 3049 3049 3049 3049 3050 3050 3051 3052 3052 3052 3053 3053 3053 3054 3054 3054 3055 3055 3055 3055 3055 3055 3055 3056 3056 3056 3056 3056 3056 3056 3056 3056 3056 3056 3056 3056 3056 3056 3056 3056 3057 3057 3057 3058 3058 3058 3059 3060 3060 3061 3062 3062 3063 3063 3064 3064 3065 3066
3045 3045 3046 3046 3046 3046 3046 3046 3046 3046 3046 3046 3046 3046 3046 3046 3047 3047 3046 3046 3046 3046 3046 3046 3046 3046 3046 3047 3047 3047 3047 3047 3047 3048 3049 3049 3050 3050 3051 3051 3051 3052 3052 3052 3052 3052 3052 3052 3052 3053 3053 3053 3054 3054 3054 3054 3054 3054 3054 3054 3054 3054 3054 3054 3054 3054 3054 3054 3055 3055 3055 3056 3056 3057 3057 3058 3059 3059 3060 3061 3061 3062 3062 3063 3063 3064
3043 3043 3043 3043 3043 3043 3043 3043 3043 3044 3044 3043 3043 3043 3043 3044 3044 3044 3044 3043 3043 3043 3044 3044 3044 3044 3044 3044 3044 3044 3044 3045 3045 3046 3046 3047 3047 3048 3048 3049 3049 3049 3050 3050 3050 3050 3050 3050 3050 3051 3051 3051 3052 3052 3052 3052 3052 3052 3052 3052 3052 3052 3052 3052 3052 3052 3052 3052 3052 3053 3054 3054 3055 3055 3056 3057 3057 3058 3059 3059 3060 3061 3061 3062 3062 3062
3041 3041 3041 3041 3041 3041 3041 3041 3041 3041 3042 3041 3041 3041 3041 3041 3041 3041 3041 3041 3041 3042 3042 3042 3042 3042 3042 3042 3042 3042 3042 3042 3043 3043 3044 3045 3045 3046 3046 3046 3047 3047 3047 3047 3047 3047 3048 3048 3048 3048 3049 3049 3049 3049 3049 3049 3049 3049 3049 3049 3049 3050 3050 3050 3050 3050 3050 3050 3051 3051 3052 3052 3053 3054 3054 3055 3056 3056 3057 3058 3058 3059 3059 3060 3061 3061
3039 3039 3039 3038 3038 3039 3039 3039 3038 3038 3039 3039 3039 3038 3039 3039 3039 3039 3038 3038 3038 3039 3039 3039 3039 3039 3039 3040 3040 3040 3040 3040 3041 3041 3042 3042 3043 3043 3043 3044 3044 3044 3045 3045 3045 3045 3046 3046 3046 3046 3047 3047 3047 3047 3047 3047 3047 3047 3047 3047 3047 3047 3047 3047 3047 3047 3048 3048 3049 3049 3050 3051 3051 3052 3053 3053 3054 3055 3056 3056 3057 3057 3058 3058 3059 3059
3036 3036 3036 3036 3036 3036 3037 3037 3036 3036 3037 3037 3037 3037 3036 3036 3036 3036 3036 3036 3036 3037 3037 3037 3037 3037 3037 3037 3037 3038 3038 3038 3039 3039 3040 3040 3041 3041 3041 3041 3042 3042 3042 3042 3043 3043 3043 3044 3044 3044 3044 3045 3045 3045 3045 3044 3044 3044 3045 3045 3045 3045 3045 3045 3045 3046 3046 3046 3047 3047 3048 3049 3050 3050 3051 3052 3052 3053 3054 3054 3055 3056 3056 3057 3057 3058
3034 3034 3034 3034 3034 3034 3034 3034 3034 3034 3034 3034 3034 3034 3034 3034 3034 3034 3033 3033 3033 3034 3035 3035 3035 3035 3035 3035 3035 3035 3036 3036 3037 3037 3037 3038 3038 3039 3039 3039 3039 3040 3040 3040 3041 3041 3041 3042 3042 3042 3042 3042 3042 3042 3042 3042 3042 3042 3042 3042 3043 3043 3043 3043 3043 3043 3044 3044 3045 3046 3047 3047 3048 3049 3049 3050 3051 3052 3052 3053 3053 3054 3055 3055 3056 3056
3031 3031 3031 3031 3031 3032 3032 3032 3032 3032 3031 3032 3032 3031 3031 3031 3031 3032 3032 3031 3031 3032 3032 3032 3032 3032 3033 3033 3033 3033 3034 3034 3035 3035 3036 3036 3036 3037 3037 3037 3037 3037 3038 3038 3038 3039 3039 3039 3039 3039 3039 3040 3040 3040 3040 3040 3040 3040 3040 3040 3040 3041 3041 3041 3041 3042 3042 3043 3043 3044 3045 3046 3046 3047 3048 3048 3049 3050 3051 3051 3052 3052 3053 3054 3054 3055
3028 3028 3028 3028 3028 3029 3029 3029 3029 3029 3028 3028 3029 3029 3029 3029 3029 3029 3029 3029 3029 3029 3030 3030 3030 3030 3031 3031 3032 3032 3032 3032 3033 3033 3033 3034 3034 3034 3035 3035 3035 3035 3036 3036 3036 3037 3037 3037 3037 3037 3037 3037 3037 3037 3037 3037 3037 3037 3038 3038 3038 3039 3039 3039 3039 3040 3040 3041 3042 3042 3043 3044 3045 3045 3046 3047 3047 3048 3049 3050 3050 3051 3052 3052 3052 3053
3025 3026 3025 3025 3026 3027 3027 3027 3027 3026 3026 3026 3026 3026 3026 3026 3027 3027 3027 3027 3027 3027 3027 3028 3028 3028 3028 3029 3029 3030 3030 3030 3031 3031 3031 3031 3032 3032 3032 3032 3033 3033 3033 3034 3034 3034 3034 3034 3034 3034 3034 3034 3034 3035 3035 3035 3035 3035 3036 3036 3036 3037 3037 3037 3037 3038 3039 3039 3040 3041 3042 3042 3043 3044 3044 3045 3046 3047 3047 3048 3048 3049 3050 3050 3051 3052
3022 3022 3023 3023 3023 3024 3024 3024 3024 3023 3023 3023 3023 3023 3024 3024 3024 3024 3024 3024 3025 3025 3025 3025 3025 3025 3025 3026 3027 3027 3028 3028 3028 3028 3029 3029 3029 3029 3030 3030 3030 3031 3031 3032 3032 3032 3032 3032 3032 3032 3032 3032 3032 3032 3032 3032 3033 3033 3033 3034 3034 3035 3035 3035 3036 3037 3037 3038 3038 3039 3040 3041 3041 3042 3043 3043 3044 3045 3046 3046 3047 3047 3048 3049 3049 3050
3019 3020 3020 3020 3020 3021 3021 3021 3021 3021 3021 3020 3021 3021 3021 3021 3021 3022 3022 3022 3022 3022 3022 3022 3022 3023 3023 3023 3024 3025 3025 3026 3026 3026 3027 3027 3027 3027 3027 3027 3028 3028 3029 3029 3029 3029 3029 3029 3029 3029 3029 3030 3030 3030 3031 3031 3031 3031 3032 3032 3032 3033 3033 3034 3034 3035 3036 3036 3037 3037 3038 3039 3040 3041 3041 3042 3042 3043 3044 3045 3045 3046 3047 3047 3048 3048
3016 3017 3017 3017 3018 3018 3018 3018 3018 3018 3018 3018 3018 3018 3018 3018 3019 3019 3019 3019 3019 3019 3020 3020 3020 3020 3021 3021 3022 3022 3023 3023 3024 3024 3024 3024 3024 3024 3025 3025 3026 3026 3026 3027 3027 3027 3027 3027 3027 3027 3027 3027 3028 3028 3028 3028 3029 3029 3030 3030 3031 3031 3032 3032 3033 3033 3034 3035 3035 3036 3037 3037 3038 3039 3040 3040 3041 3042 3042 3043 3044 3044 3045 3046 3046 3047
3013 3014 3014 3015 3015 3015 3015 3016 3016 3016 3016 3015 3015 3016 3016 3016 3016 3016 3017 3017 3017 3017 3017 3017 3017 3018 3018 3019 3019 3020 3020 3021 3021 3021 3021 3022 3022 3022 3022 3023 3023 3023 3024 3024 3025 3025 3025 3024 3024 3024 3025 3025 3026 3026 3026 3027 3027 3027 3027 3028 3029 3029 3030 3031 3031 3032 3032 3033 3034 3035 3035 3036 3037 3037 3038 3039 3039 3040 3041 3041 3042 3043 3043 3044 3045 3045
3010 3011 3011 3012 3012 3012 3012 3013 3013 3014 3013 3013 3013 3013 3013 3013 3013 3014 3014 3014 3014 3014 3014 3014 3015 3015 3016 3016 3017 3017 3017 3018 3018 3018 3018 3019 3019 3019 3020 3020 3021 3021 3021 3022 3022 3022 3022 3022 3022 3022 3022 3023 3023 3024 3024 3024 3025 3025 3026 3027 3027 3028 3028 3029 3030 3030 3031 3032 3032 3033 3034 3034 3035 3036 3037 3037 3038 3038 3039 3040 3040 3041 3042 3042 3043 3044
3007 3007 3008 3008 3008 3008 3009 3010 3011 3011 3011 3010 3010 3010 3011 3011 3011 3011 3011 3011 3011 3011 3011 3012 3012 3012 3013 3013 3014 3014 3014 3014 3015 3015 3016 3016 3017 3017 3017 3017 3018 3018 3019 3019 3020 3020 3020 3020 3020 3020 3020 3021 3021 3022 3022 3022 3023 3023 3024 3025 3025 3026 3027 3027 3028 3029 3030 3030 3031 3032 3032 3033 3034 3034 3035 3036 3036 3037 3037 3038 3039 3039 3040 3041 3042 3042
3004 3004 3005 3005 3006 3006 3007 3007 3008 3008 3008 3008 3008 3007 3008 3007 3007 3008 3008 3008 3008 3008 3009 3009 3009 3010 3010 3011 3011 3011 3011 3012 3012 3012 3013 3013 3014 3015 3015 3015 3015 3016 3016 3017 3017 3017 3017 3017 3017 3017 3018 3019 3019 3020 3020 3021 3021 3022 3022 3023 3024 3025 3025 3026 3027 3027 3028 3029 3029 3030 3031 3032 3032 3033 3033 3034 3035 3035 3036 3037 3037 3038 3039 3039 3040 3041
3001 3001 3002 3002 3003 3003 3004 3004 3005 3005 3005 3005 3005 3005 3005 3005 3005 3005 3005 3005 3005 3006 3006 3007 3007 3007 3007 3008 3008 3008 3009 3009 3009 3010 3010 3011 3012 3013 3013 3013 3013 3013 3013 3014 3015 3015 3015 3015 3015 3016 3016 3017 3017 3018 3018 3019 3020 3020 3021 3022 3022 3023 3024 3024 3025 3026 3027 3027 3028 3029 3029 3030 3031 3032 3032 3033 3033 3034 3035 3035 3036 3037 3037 3038 3038 3039
2997 2998 2999 2999 3000 3000 3001 3001 3002 3002 3002 3002 3002 3002 3002 3002 3002 3002 3002 3002 3003 3003 3003 3003 3004 3004 3004 3005 3006 3006 3006 3007 3007 3007 3008 3009 3010 3010 3010 3010 3010 3011 3011 3012 3012 3012 3013 3013 3013 3013 3014 3015 3015 3016 3017 3017 3018 3019 3019 3020 3021 3022 3022 3023 3024 3024 3025 3026 3027 3027 3028 3029 3029 3030 3031 3031 3032 3032 3033 3034 3034 3035 3036 3036 3037 3037
2994 2995 2995 2996 2997 2997 2998 2998 2999 2999 2999 2999 2999 2999 2999 2999 2999 2999 2999 2999 3000 3000 3000 3001 3001 3001 3002 3002 3003 3003 3004 3004 3004 3005 3006 3007 3007 3008 3008 3008 3008 3008 3008 3009 3010 3010 3011 3011 3011 3012 3012 3013 3014 3014 3015 3016 3017 3017 3018 3019 3019 3020 3021 3022 3022 3023 3024 3024 3025 3026 3027 3027 3028 3028 3029 3030 3030 3031 3032 3032 3032 3033 3034 3034 3035 3036
2991 2991 2992 2992 2993 2994 2995 2995 2996 2996 2997 2997 2997 2996 2996 2996 2996 2996 2996 2997 2997 2997 2997 2997 2998 2998 2999 2999 3000 3001 3001 3002 3002 3002 3003 3004 3005 3006 3006 3006 3006 3006 3006 3007 3007 3008 3008 3009 3009 3010 3011 3011 3012 3012 3013 3014 3015 3016 3017 3017 3018 3019 3019 3020 3021 3022 3022 3023 3024 3024 3025 3026 3026 3027 3027 3028 3029 3029 3030 3030 3031 3032 3032 3033 3033 3034
2987 2988 2989 2989 2990 2991 2991 2992 2992 2993 2993 2993 2993 2993 2993 2993 2993 2993 2994 2994 2994 2994 2994 2994 2995 2995 2996 2997 2997 2998 2998 2999 2999 3000 3000 3001 3002 3003 3003 3003 3003 3004 3004 3005 3005 3006 3007 3007 3008 3008 3009 3010 3010 3011 3012 3013 3013 3014 3015 3016 3017 3017 3018 3019 3020 3020 3021 3022 3022 3023 3023 3024 3025 3025 3026 3027 3027 3027 3028 3029 3029 3030 3031 3031 3032 3032
2984 2985 2985 2986 2987 2987 2988 2989 2989 2990 2990 2990 2990 2990 2990 2990 2990 2991 2991 2991 2991 2991 2992 2992 2992 2992 2993 2994 2995 2995 2995 2996 2996 2997 2997 2998 2999 3000 3001 3001 3001 3002 3002 3002 3003 3004 3005 3005 3006 3007 3007 3008 3009 3010 3010 3011 3012 3013 3014 3014 3015 3016 3017 3017 3018 3019 3020 3020 3021 3022 3022 3022 3023 3024 3024 3025 3025 3026 3027 3027 3028 3028 3029 3029 3030 3030
2981 2981 2982 2983 2984 2984 2985 2986 2986 2987 2987 2987 2987 2987 2987 2987 2988 2988 2988 2988 2988 2988 2989 2989 2989 2990 2990 2991 2992 2992 2992 2993 2993 2994 2995 2996 2997 2997 2998 2998 2999 2999 3000 3000 3001 3002 3003 3004 3004 3005 3006 3007 3007 3008 3009 3010 3011 3012 3012 3013 3014 3015 3015 3016 3017 3017 3018 3019 3019 3020 3021 3021 3022 3022 3023 3023 3024 3025 3025 3026 3026 3027 3027 3027 3028 3029
2977 2978 2979 2980 2980 2981 2982 2982 2983 2983 2984 2984 2984 2985 2985 2985 2985 2985 2985 2985 2986 2986 2986 2986 2986 2987 2987 2988 2989 2989 2990 2990 2991 2991 2992 2993 2994 2995 2995 2996 2996 2997 2997 2998 2999 3000 3001 3002 3003 3003 3004 3005 3006 3007 3008 3008 3009 3010 3011 3012 3012 3013 3014 3015 3016 3016 3017 3017 3018 3018 3019 3020 3020 3021 3021 3022 3022 3023 3023 3024 3025 3025 3025 3026 3027 3027
2973 2974 2976 2977 2977 2978 2978 2979 2980 2980 2981 2981 2982 2982 2982 2982 2982 2982 2982 2982 2983 2983 2983 2983 2983 2984 2985 2985 2986 2987 2987 2988 2988 2988 2989 2990 2991 2992 2993 2993 2994 2995 2996 2996 2997 2998 2999 3000 3001 3002 3003 3004 3005 3006 3006 3007 3008 3009 3010 3011 3011 3012 3013 3013 3014 3015 3015 3016 3017 3017 3017 3018 3019 3019 3020 3020 3021 3022 3022 3022 3023 3023 3024 3024 3025 3025
2970 2971 2972 2973 2974 2975 2975 2976 2977 2977 2978 2978 2979 2979 2979 2979 2979 2979 2979 2980 2980 2980 2980 2980 2981 2981 2982 2982 2983 2984 2985 2986 2986 2986 2987 2987 2989 2990 2990 2991 2992 2993 2993 2994 2996 2997 2998 2999 2999 3000 3001 3002 3003 3004 3005 3006 3007 3007 3008 3009 3010 3011 3011 3012 3012 3013 3014 3014 3015 3016 3016 3017 3017 3018 3018 3019 3019 3020 3020 3021 3021 3022 3022 3022 3023 3023
2967 2967 2968 2969 2970 2971 2972 2973 2973 2974 2975 2975 2976 2976 2976 2976 2976 2976 2976 2977 2977 2977 2977 2977 2978 2978 2979 2980 2981 2982 2982 2983 2983 2983 2984 2985 2987 2987 2988 2989 2990 2991 2992 2993 2994 2995 2996 2997 2998 2999 3000 3001 3002 3003 3004 3005 3006 3006 3007 3008 3009 3009 3010 3011 3011 3012 3012 3013 3013 3014 3014 3015 3016 3016 3017 3017 3017 3018 3018 3019 3019 3020 3020 3021 3021 3022
2963 2964 2965 2966 2967 2968 2969 2970 2970 2971 2972 2972 2972 2973 2973 2972 2973 2973 2973 2973 2973 2974 2974 2975 2975 2976 2977 2977 2978 2979 2980 2980 2980 2980 2982 2983 2984 2985 2986 2987 2988 2989 2990 2992 2992 2994 2995 2996 2997 2997 2998 3000 3001 3002 3002 3003 3004 3005 3006 3007 3007 3008 3008 3009 3010 3010 3011 3011 3012 3012 3013 3013 3014 3014 3015 3015 3016 3016 3017 3017 3017 3018 3018 3019 3019 3020
2959 2960 2962 2962 2964 2965 2966 2967 2967 2968 2968 2969 2969 2970 2970 2970 2970 2970 2970 2970 2971 2971 2971 2972 2972 2973 2974 2975 2976 2977 2978 2977 2977 2978 2979 2981 2982 2983 2984 2985 2986 2987 2989 2990 2991 2992 2993 2994 2995 2996 2997 2998 2999 3000 3001 3002 3003 3004 3004 3005 3006 3006 3007 3007 3008 3009 3009 3010 3010 3011 3011 3012 3012 3012 3013 3013 3014 3014 3015 3015 3016 3016 3017 3017 3018 3018
2956 2957 2958 2959 2960 2962 2962 2963 2964 2965 2965 2966 2966 2967 2967 2967 2967 2967 2967 2967 2967 2968 2968 2969 2970 2971 2972 2973 2974 2974 2975 2975 2975 2976 2977 2979 2980 2982 2982 2983 2985 2986 2987 2988 2990 2991 2992 2992 2994 2995 2996 2997 2998 2999 3000 3001 3002 3002 3003 3003 3004 3005 3005 3006 3007 3007 3007 3008 3009 3009 3009 3010 3010 3011 3011 3012 3012 3012 3013 3013 3014 3014 3015 3016 3016 3017
2952 2954 2955 2956 2957 2958 2959 2960 2961 2962 2962 2962 2963 2963 2963 2963 2964 2964 2964 2964 2965 2965 2966 2966 2967 2968 2969 2970 2971 2972 2972 2972 2973 2974 2976 2977 2978 2980 2981 2982 2983 2984 2986 2987 2988 2989 2990 2991 2992 2993 2994 2996 2997 2997 2998 2999 3000 3001 3001 3002 3002 3003 3004 3004 3005 3005 3006 3007 3007 3007 3007 3008 3008 3009 3009 3010 3010 3010 3011 3012 3012 3013 3013 3014 3014 3015
2949 2950 2951 2952 2954 2955 2956 2957 2957 2958 2959 2959 2960 2960 2960 2960 2961 2961 2961 2961 2962 2962 2963 2963 2964 2966 2967 2968 2968 2969 2970 2970 2972 2973 2974 2976 2977 2978 2979 2980 2982 2983 2984 2985 2987 2987 2989 2990 2991 2992 2993 2994 2995 2996 2996 2997 2998 2999 3000 3000 3001 3002 3002 3002 3003 3004 3004 3005 3005 3005 3006 3006 3007 3007 3007 3008 3008 3009 3009 3010 3010 3011 3012 3012 3012 3013
2946 2947 2948 2949 2950 2951 2952 2953 2954 2955 2956 2956 2957 2957 2957 2957 2957 2957 2958 2958 2959 2959 2960 2961 2962 2963 2964 2965 2966 2967 2967 2968 2970 2971 2972 2974 2975 2977 2978 2979 2980 2981 2983 2984 2985 2986 2987 2988 2989 2991 2992 2992 2993 2994 2995 2996 2997 2997 2998 2999 2999 3000 3000 3001 3001 3002 3002 3003 3003 3003 3004 3004 3005 3005 3006 3006 3007 3007 3008 3008 3009 3009 3010 3010 3011 3011
2943 2943 2944 2945 2947 2947 2949 2950 2951 2952 2952 2953 2953 2954 2954 2954 2954 2954 2955 2955 2956 2956 2957 2958 2960 2961 2962 2963 2964 2964 2965 2967 2968 2969 2971 2972 2974 2975 2976 2977 2979 2980 2981 2982 2983 2985 2986 2987 2988 2989 2990 2991 2992 2992 2993 2994 2995 2996 2996 2997 2997 2998 2999 2999 3000 3000 3000 3001 3001 3002 3002 3002 3003 3003 3004 3004 3005 3006 3006 3007 3007 3007 3008 3008 3009 3009
2939 2940 2941 2942 2943 2944 2945 2946 2947 2948 2949 2950 2950 2950 2951 2951 2951 2951 2952 2952 2953 2954 2955 2956 2957 2958 2960 2961 2962 2962 2963 2965 2966 2968 2969 2971 2972 2973 2975 2976 2977 2978 2980 2981 2982 2983 2984 2985 2986 2987 2988 2989 2990 2991 2992 2992 2993 2994 2995 2995 2996 2996 2997 2997 2998 2998 2998 2999 2999 3000 3000 3001 3001 3002 3002 3003 3003 3004 3004 3005 3005 3006 3006 3007 3007 3007
2935 2936 2937 2938 2939 2941 2942 2943 2944 2945 2946 2946 2947 2947 2947 2948 2948 2948 2949 2949 2950 2951 2952 2954 2955 2956 2957 2958 2959 2960 2962 2963 2965 2966 2968 2969 2971 2972 2973 2974 2976 2977 2978 2979 2980 2981 2982 2984 2985 2986 2987 2987 2988 2989 2990 2991 2992 2992 2993 2993 2994 2995 2995 2996 2996 2996 2997 2997 2997 2998 2998 2999 3000 3000 3001 3001 3002 3002 3003 3003 3004 3004 3004 3005 3005 3006
2932 2932 2933 2934 2936 2937 2939 2940 2941 2941 2942 2943 2943 2944 2944 2945 2945 2945 2946 2947 2948 2949 2950 2952 2953 2954 2955 2956 2957 2959 2960 2962 2963 2965 2966 2968 2969 2970 2972 2973 2974 2975 2977 2977 2979 2980 2981 2982 2983 2984 2985 2986 2987 2987 2988 2989 2990 2990 2991 2992 2992 2993 2993 2994 2994 2995 2995 2995 2996 2996 2997 2997 2998 2998 2999 2999 3000 3001 3001 3002 3002 3002 3003 3003 3003 3004
2928 2928 2930 2931 2933 2934 2935 2936 2937 2938 2938 2939 2940 2941 2941 2942 2942 2942 2943 2944 2945 2947 2948 2949 2950 2952 2953 2954 2955 2957 2958 2960 2962 2963 2965 2966 2967 2969 2970 2971 2972 2974 2975 2976 2977 2978 2979 2980 2982 2982 2983 2984 2985 2986 2987 2987 2988 2988 2989 2990 2990 2991 2991 2992 2992 2993 2993 2994 2994 2995 2995 2996 2997 2997 2997 2998 2998 2999 2999 3000 3000 3001 3001 3001 3001 3002
2924 2925 2927 2928 2930 2931 2932 2933 2934 2934 2935 2936 2937 2937 2938 2939 2939 2940 2941 2942 2943 2945 2946 2947 2948 2949 2951 2952 2954 2955 2957 2959 2960 2962 2963 2965 2966 2967 2968 2970 2971 2972 2973 2975 2976 2977 2978 2979 2980 2981 2982 2982 2983 2984 2985 2985 2986 2987 2987 2988 2988 2989 2990 2990 2991 2991 2992 2992 2993 2993 2994 2994 2995 2996 2996 2996 2997 2997 2997 2998 2998 2998 2999 2999 2999 2999
2921 2922 2923 2925 2927 2927 2928 2929 2930 2931 2932 2933 2934 2934 2935 2936 2937 2938 2939 2940 2941 2942 2944 2945 2946 2947 2949 2951 2952 2954 2956 2957 2959 2960 2962 2963 2964 2966 2967 2968 2969 2971 2972 2973 2974 2975 2976 2977 2978 2979 2980 2981 2982 2982 2983 2983 2984 2985 2985 2986 2987 2987 2988 2988 2989 2989 2990 2991 2991 2992 2992 2993 2993 2994 2994 2995 2995 2995 2996 2996 2996 2996 2997 2997 2997 2997
2918 2919 2920 2922 2923 2924 2925 2926 2927 2927 2928 2930 2931 2932 2932 2933 2934 2936 2937 2938 2939 2940 2942 2943 2944 2946 2948 2949 2951 2952 2954 2956 2957 2959 2960 2962 2963 2964 2966 2967 2968 2969 2970 2972 2972 2973 2974 2975 2976 2977 2978 2979 2979 2980 2981 2982 2982 2983 2983 2984 2985 2985 2986 2987 2987 2988 2988 2989 2990 2990 2991 2991 2992 2992 2992 2993 2993 2993 2994 2994 2994 2994 2994 2994 2995 2995
2915 2916 2917 2918 2919 2921 2922 2922 2923 2924 2926 2927 2928 2929 2930 2931 2932 2933 2934 2936 2937 2938 2939 2941 2943 2945 2946 2948 2949 2951 2952 2954 2956 2957 2958 2960 2961 2962 2964 2965 2967 2968 2969 2970 2971 2972 2972 2973 2974 2975 2976 2977 2977 2978 2979 2979 2980 2981 2982 2982 2983 2983 2984 2985 2986 2987 2987 2987 2988 2988 2989 2989 2990 2990 2991 2991 2991 2992 2992 2992 2992 2992 2992 2992 2992 2992
2911 2912 2914 2915 2916 2917 2918 2919 2920 2921 2922 2924 2925 2926 2927 2928 2930 2931 2932 2933 2935 2936 2938 2939 2941 2943 2945 2946 2948 2950 2951 2952 2954 2955 2957 2958 2960 2961 2962 2963 2965 2966 2967 2968 2969 2970 2971 2971 2972 2973 2974 2975 2975 2976 2977 2977 2978 2979 2980 2980 2981 2982 2982 2983 2984 2985 2986 2986 2987 2987 2987 2988 2988 2989 2989 2989 2989 2989 2989 2989 2990 2990 2990 2990 2990 2990
2908 2909 2911 2912 2913 2914 2915 2916 2917 2918 2920 2921 2922 2924 2925 2926 2927 2928 2930 2931 2933 2934 2936 2938 2940 2941 2943 2945 2947 2948 2950 2951 2953 2954 2955 2957 2958 2959 2961 2962 2963 2964 2965 2966 2967 2968 2968 2969 2970 2971 2972 2972 2973 2974 2975 2975 2976 2977 2978 2978 2979 2980 2981 2982 2982 2983 2984 2984 2985 2985 2986 2986 2986 2987 2987 2987 2987 2987 2987 2987 2987 2987 2987 2987 2987 2987